Location: Béaulencourt
(50.0796°N, 2.8795°E)
Time: 02:41:08
(UTC+00:00)

Tiangong - Visible Passes

Search period start: 06 March 2026 00:00
Search period end: 16 March 2026 00:00
Orbit: 382 x 391 km, 41.5° (Epoch: 5 March)

Date Brightness Start Highest point End Pass type
(mag) Time Alt. Az. Time Alt. Az. Time Alt. Az.
12 Mar 0.8 05:22:01 10° S 05:22:41 10° SSE 05:23:21 10° SSE visible
14 Mar 0.4 04:58:50 10° SSW 05:00:32 14° SSE 05:02:13 10° SE visible
15 Mar 0.7 04:01:31 11° SSE 04:01:31 11° SSE 04:02:08 10° SSE visible
